Terminal Aerodrome Forecast
Issued by NWS Sterling, VA

Current Version | Previous Version | Graphics & Text | Print | Product List | Glossary On
Versions: 1 2 3 4 5 6 7 8 9 10 11 12 13 14 15 16 17 18 19 20 21 22 23 24
000
FTUS41 KLWX 191600 AAC
TAFDCA
TAF AMD
KDCA 191600Z 1916/2012 06007KT P6SM BKN025 BKN050
     FM191800 11007KT P6SM BKN050
     FM200500 VRB03KT P6SM FEW050 SCT130=

USA.gov is the U.S. government's official web portal to all federal, state and local government web resources and services.